Regional Weather Roundup
Issued by NWS Grand Forks, ND

Home | Current Version | Previous Version | Graphics & Text | Print | Product List | Glossary On
Versions: 1 2 3 4 5 6 7 8 9 10 11 12 13 14 15 16 17 18 19 20 21 22 23 24 25 26 27 28 29 30 31 32 33 34 35 36 37 38 39 40 41 42 43 44 45 46 47 48 49 50
000
ASUS43 KFGF 190931
RWRFGF
PRAIRIE TO PINES  WEATHER ROUNDUP
NATIONAL WEATHER SERVICE EASTERN NORTH DAKOTA/GRAND FORKS ND
400 AM CDT SUN APR 19 2015

 **SATELLITE DATA USED TO AUGMENT SKY COVER AT AUTOMATED STATIONS**
 *****  WEATHER ACROSS EASTERN NORTH DAKOTA  *****

CITY           SKY/WX    TMP DP  RH WIND       PRES   REMARKS
GRAND FORKS    LGT RAIN  49  46  90 NW6       29.76F
GRAND FRKS AFB LGT RAIN  49  46  88 NW10      29.75F
GRAND FRKS NWS   N/A     46 N/A N/A N7          N/A
DEVILS LAKE    CLOUDY    45  39  81 NW22      29.79F
FARGO          LGT RAIN  51  49  92 CALM      29.73F
WAHPETON ARPT  CLOUDY    46  43  87 E12G17    29.71F
$$

 ***** WEATHER ACROSS CENTRAL AND WESTERN NORTH DAKOTA  *****

CITY           SKY/WX    TMP DP  RH WIND       PRES   REMARKS
BISMARCK       CLOUDY    44  36  73 NW21      29.90S
MINOT          CLOUDY    42  32  67 W16       29.89F
JAMESTOWN      LGT RAIN  47  44  90 N18       29.78S
MINOT AFB      CLOUDY    40  37  88 NW15      29.88F
GARRISON         N/A     41  34  76 NW17      29.90F
WILLISTON      CLOUDY    39  27  62 W15       30.00F
DICKINSON      PTCLDY    35  27  72 W12       29.97F
HETTINGER      MOCLDY    36  30  79 NW13      29.99F
$$

 *****  OTHER AIRPORT OBSERVATIONS IN OUR AREA  *****

CITY           SKY/WX    TMP DP  RH WIND       PRES   REMARKS
WALHALLA       LGT RAIN  46  46 100 W6        29.78F
GRAFTON AIRPOR CLOUDY    48  48 100 NW8       29.76F
VALLEY CITY AR LGT RAIN  46  46 100 NW15G23   29.75F
CANDO          LGT RAIN  43  41  93 NW12      29.83S
CAVALIER APRT  LGT RAIN  46  45  93 NW7       29.78F
GWINNER        CLOUDY    48  48 100 N17       29.76S
SHEYENNE NWR     N/A     50  50  99 CALM      29.95S
ROLLA          CLOUDY    41  37  87 NW14G20   29.82F
 ***** THE ABOVE OBSERVATIONS ARE NON NWS ARE NOT QUALITY
       CONTROLLED AND MAY MIS-REPORT RAIN FOR SNOW...
$$

  *****  WEATHER ACROSS NORTHERN MINNESOTA  *****

CITY           SKY/WX    TMP DP  RH WIND       PRES   REMARKS
FLAG ISLAND    CLOUDY    39  30  70 S8        29.79S
WARROAD        DRIZZLE   46  37  71 S6        29.79F
ROSEAU         DRIZZLE   46  39  76 S7        29.78F
HALLOCK        LGT RAIN  48  45  87 S5        29.76F
THF RVR FALLS  CLOUDY    48  41  76 SE5       29.77F
BAUDETTE       CLOUDY    46  28  49 SE9       29.81F
WASKISH        DRIZZLE   45  37  76 CALM      29.81S
CROOKSTON      LGT RAIN  50  46  87 CALM      29.77F
STEPHEN NDAWN    N/A     50  46  87 W8          N/A
GREENBUSH NDAW   N/A     46  43  87 S6          N/A
$$
  *****  WEATHER ACROSS CENTRAL AND WEST MINNESOTA  *****

CITY           SKY/WX    TMP DP  RH WIND       PRES   REMARKS
FOSSTON        DRIZZLE   45  37  76 CALM      29.77F
BEMIDJI        RAIN      40  39  97 E9        29.78F
PARK RAPIDS    RAIN      43  41  93 E10       29.76F FOG
ELBOW LAKE     CLOUDY    47  47  99 SE10      29.67F FOG
WADENA         LGT RAIN  43  41  93 E12       29.71F
DETROIT LAKES  RAIN      45  43  93 NE6       29.74F
MOORHEAD       RAIN      48  46  93 E6        29.74F
FERGUS FALLS   CLOUDY    46  45  93 E10       29.71F FOG
MORRIS MN      CLOUDY    54  52  94 SW10      29.67F FOG
STAPLES        LGT RAIN  43  43 100 E8        29.73F
$$
  *****  WEATHER ELSEWHERE ACROSS MINNESOTA  *****

CITY           SKY/WX    TMP DP  RH WIND       PRES   REMARKS
DULUTH         LGT RAIN  38  33  82 E16       29.84F
INTRNTL FALLS  CLOUDY    42  22  44 E6        29.84F
ELY            RAIN      37  34  87 SE7       29.89F
CLOQUET        LGT RAIN  36  34  93 E10G17    29.82F
WHEATON        CLOUDY    46  45  93 NW8       29.71S
BRAINERD       LGT RAIN  41  40  96 E7        29.77F
HIBBING        RAIN      39  35  86 SE7       29.86F
ALEXANDRIA     LGT RAIN  49  47  93 SE14      29.69F FOG
SAINT CLOUD    LGT RAIN  47  45  93 E7        29.76F
MINNEAPOLIS    CLOUDY    51  40  65 SE10      29.78F
$$

  *****  WEATHER ACROSS SOUTH DAKOTA  *****

CITY           SKY/WX    TMP DP  RH WIND       PRES   REMARKS
SIOUX FALLS    CLOUDY    56  55  97 SW6       29.72F FOG
BROOKINGS      CLOUDY    57  54  88 W10G17    29.71F
WATERTOWN      CLOUDY    53  52  96 VRB6      29.69F FOG
HURON          CLOUDY    49  47  93 NW24G30   29.76S
SISSETON         N/A     49  49 100 N8        29.71S
ABERDEEN       RAIN      49  47  93 N12       29.77F
MITCHELL       CLOUDY    52  51  97 W16G24    29.76F FOG
PIERRE         CLOUDY    47  42  83 N25G33    29.87R
MOBRIDGE       CLOUDY    46  41  82 N15G26    29.86R
RAPID CITY     MOCLDY    41  30  65 NW28G33   30.00R
$$

  *****  SOME WEATHER IN NEARBY STATES *****

CITY           SKY/WX    TMP DP  RH WIND       PRES   REMARKS
GLASGOW MT     CLEAR     36  23  59 NW13      30.13S
GREAT FALLS MT MOCLDY    34  30  85 SW5       30.27S
CHEYENNE WY    LGT SNOW  34  30  85 N25G41    30.05R FOG     WCI  21
SCOTTSBLUFF NE CLOUDY    44 N/A N/A NW22G30   30.03R
OMAHA NE       FOG       57  56  96 SE5       29.74S VSB 1/2
DES MOINES IA  CLOUDY    58  56  93 SE3       29.77F
DAVENPORT IA   MOCLDY    52  37  56 E9        29.82F
CHICAGO IL     MOCLDY    53  28  38 E7        29.89F
EAU CLAIRE WI  CLOUDY    46  34  62 E7        29.85F
LA CROSSE WI   CLOUDY    52  33  48 E10       29.84F
$$

  *****  SOME NATIONAL WEATHER *****

CITY           SKY/WX    TMP DP  RH WIND       PRES   REMARKS
LA GUARDIA NY  MOCLDY    54  25  32 N7        30.16R
RALEIGH NC     CLOUDY    64  61  90 CALM      30.00R
ATLANTA GA     LGT RAIN  67  64  90 SE7       29.86F FOG
NEW ORLEANS LA MOCLDY    71  68  90 SW9       29.80R
OKLAHOMA CITY  MOCLDY    56  49  77 E7        29.74F
ALBUQUERQUE NM PTCLDY    50  31  48 N9        30.00R
SALT LAKE CITY CLEAR     49  36  61 SE6       30.03S
LOS ANGELES CA PTCLDY    57  54  89 SW3       29.97F
BOISE ID       CLEAR     46  24  42 SW6       30.08S
SEATTLE WA     CLEAR     51  40  65 N10       30.24S
$$

*** WEATHER ACROSS MANITOBA...SASKATCHEWAN AND ONTARIO ***
                ***ONTARIO***

CITY           SKY/WX    TMP DP  RH WIND       PRES   REMARKS
GERALDTON      MOCLDY    32  23  69 E7        30.13F
THUNDER BAY    MOCLDY    37  28  70 E10       30.04F
SIOUX LOOKOUT  CLOUDY    37  19  48 SE7       29.90F
TORONTO        CLEAR     43  28  56 E10G18    30.23R
BIG TROUT LK   CLOUDY    37  25  60 SE8       30.04S
PICKLE LAKE    NOT AVBL
DRYDEN         CLOUDY    41  18  38 SE9G17    29.86F
KENORA         CLOUDY    45  21  39 SE13      29.80F
$$
                *** MANITOBA***

CITY           SKY/WX    TMP DP  RH WIND       PRES   REMARKS
BRANDON        CLOUDY    43  37  81 NW18G25   29.81F
DAUPHIN        LGT RAIN  43  39  87 W5        29.83S
ISLAND LAKE    CLOUDY    41  27  56 E7        29.83F
PILOT MOUND      N/A     43  41  93 W7          N/A
THE PAS        CLOUDY    36  34  93 NW10      29.91S
THOMPSON       FLURRIES  28  27  93 NE16G26   29.96R WCI  17
WINNIPEG       LGT RAIN  46  39  76 W13       29.75F
LYNN LAKE      CLOUDY    23  23 100 NE15      30.12R WCI  10
CHURCHILL      MOCLDY    18  14  86 NE9       30.31S WCI   6
GILLAM         LGT SNOW  25  23  93 NE16G25   30.04R VSB 3/4 WCI  12
$$
                ***SASKATCHEWAN***

CITY           SKY/WX    TMP DP  RH WIND       PRES   REMARKS
ESTEVAN        PTCLDY    36  30  80 W13       29.94F
KINDERSLEY     PTCLDY    30  28  93 NW7       30.20R WCI  23
LLOYDMINSTER   CLEAR     32  28  86 NW9       30.21S WCI  24
PRINCE ALBERT  CLOUDY    37  32  81 N17G25    30.09R
REGINA         CLOUDY    37  36  93 NW21G28   29.99S
YORKTON        LGT RAIN  39  36  87 NW8       29.90S
N. BATTLEFORD  CLEAR     32  32 100 NW10      30.19S WCI  24
LA RONGE       CLOUDY    34  32  93 N7G17     30.15R
SASKATOON      MOCLDY    37  32  81 NW12      30.12R
SWIFT CURRENT  CLOUDY    34  32  93 NW18G25   30.13S WCI  23
$$
NOTE: THESE ARE AUTOMATED STATIONS WITH LIMITED QUALITY CONTROL
      "FAIR" INDICATES FEW OR NO CLOUDS BELOW 12,000 FEET WITH NO
      SIGNIFICANT WEATHER AND/OR OBSTRUCTIONS TO VISIBILITY.
      SKY/WX - SKY CONDITION AND SIGNIFICANT WEATHER.
      TMP - AIR TEMPERATURE.    DP   - DEWPOINT TEMPERATURE.
      RH  - RELATIVE HUMIDITY.  PRES - PRESSURE.
      HX  - HEAT INDEX.         WCI  - WIND CHILL INDEX.
$



USA.gov is the U.S. government's official web portal to all federal, state and local government web resources and services.